SIA7429 YSSY-WSSS

Flight info

Callsign SIA7429
Flight time N/A
Altitude 28000
Route SY3/25 TESAT A576 PKS G222 EVIEC/N0494F300 G222 ONALA/N0503F320 G222 SAPDA A585 PLB G579 SJ
Aircraft B77L/H-SDE1E2E3FGHIJ2J3J4J5M1RWXY/LB1D1

Departure

Time 2026-05-07 08:16
Airport Sydney Kingsford Smith International Airport (YSSY)

Arrival

Time N/A
Airport Singapore Changi Airport (WSSS)
Time Latitude Longitude Altitude Speed Heading
2026-05-07 07:38 -33.92837 151.17484 34 ft 0 kts 78°
2026-05-07 07:47 -33.92773 151.17469 34 ft 0 kts 79°
2026-05-07 07:59 -33.92774 151.17460 34 ft 4 kts 79°
2026-05-07 07:59 -33.92778 151.17428 34 ft 4 kts 86°
2026-05-07 07:59 -33.92779 151.17396 34 ft 4 kts 99°
2026-05-07 07:59 -33.92772 151.17369 34 ft 4 kts 130°
2026-05-07 08:00 -33.92759 151.17357 34 ft 2 kts 166°
2026-05-07 08:00 -33.92777 151.17362 34 ft 4 kts 167°
2026-05-07 08:00 -33.92803 151.17369 34 ft 4 kts 168°
2026-05-07 08:00 -33.92830 151.17375 34 ft 4 kts 170°
2026-05-07 08:01 -33.92850 151.17379 34 ft 1 kts 171°
2026-05-07 08:01 -33.92835 151.17376 34 ft 4 kts 175°
2026-05-07 08:01 -33.92826 151.17375 34 ft 0 kts 178°
2026-05-07 08:05 -33.92862 151.17376 34 ft 5 kts 177°
2026-05-07 08:05 -33.92897 151.17381 34 ft 5 kts 173°
2026-05-07 08:06 -33.92933 151.17386 34 ft 5 kts 173°
2026-05-07 08:06 -33.92957 151.17390 33 ft 2 kts 173°
2026-05-07 08:06 -33.92965 151.17391 35 ft 0 kts 173°
2026-05-07 08:07 -33.92988 151.17397 35 ft 10 kts 166°
2026-05-07 08:07 -33.93028 151.17414 34 ft 5 kts 156°
2026-05-07 08:07 -33.93034 151.17417 35 ft 0 kts 155°
2026-05-07 08:07 -33.93040 151.17420 35 ft 5 kts 156°
2026-05-07 08:08 -33.93062 151.17429 35 ft 3 kts 163°
2026-05-07 08:08 -33.93082 151.17434 34 ft 3 kts 173°
2026-05-07 08:08 -33.93163 151.17438 34 ft 16 kts 163°
2026-05-07 08:08 -33.93272 151.17478 33 ft 16 kts 163°
2026-05-07 08:09 -33.93382 151.17504 34 ft 16 kts 172°
2026-05-07 08:09 -33.93496 151.17506 34 ft 16 kts 171°
2026-05-07 08:09 -33.93607 151.17537 32 ft 16 kts 168°
2026-05-07 08:09 -33.93719 151.17563 33 ft 16 kts 169°
2026-05-07 08:10 -33.93828 151.17594 33 ft 14 kts 166°
2026-05-07 08:10 -33.93862 151.17611 33 ft 5 kts 142°
2026-05-07 08:10 -33.93869 151.17662 33 ft 9 kts 74°
2026-05-07 08:10 -33.93848 151.17744 34 ft 10 kts 75°
2026-05-07 08:11 -33.93829 151.17825 34 ft 10 kts 75°
2026-05-07 08:11 -33.93808 151.17907 34 ft 10 kts 74°
2026-05-07 08:11 -33.93789 151.17991 34 ft 10 kts 75°
2026-05-07 08:11 -33.93770 151.18072 34 ft 10 kts 73°
2026-05-07 08:12 -33.93751 151.18154 34 ft 10 kts 75°
2026-05-07 08:12 -33.93732 151.18238 34 ft 12 kts 71°
2026-05-07 08:12 -33.93697 151.18377 34 ft 19 kts 73°
2026-05-07 08:12 -33.93661 151.18530 34 ft 19 kts 75°
2026-05-07 08:13 -33.93625 151.18683 34 ft 19 kts 74°
2026-05-07 08:13 -33.93595 151.18828 34 ft 18 kts 85°
2026-05-07 08:13 -33.93612 151.18910 33 ft 4 kts 126°
2026-05-07 08:13 -33.93622 151.18921 33 ft 0 kts 138°
2026-05-07 08:14 -33.93626 151.18925 33 ft 0 kts 141°
2026-05-07 08:15 -33.93711 151.18954 29 ft 23 kts 188°
2026-05-07 08:15 -33.93774 151.18878 30 ft 3 kts 252°
2026-05-07 08:16 -33.93796 151.18795 29 ft 40 kts 252°
2026-05-07 08:16 -33.93949 151.18140 34 ft 120 kts 255°
2026-05-07 08:16 -33.94230 151.16935 259 ft 162 kts 255°
2026-05-07 08:16 -33.94408 151.15599 989 ft 165 kts 278°
2026-05-07 08:17 -33.93913 151.14366 1769 ft 168 kts 308°
2026-05-07 08:17 -33.93081 151.13386 2445 ft 170 kts 311°
2026-05-07 08:17 -33.92154 151.12427 2856 ft 181 kts 312°
2026-05-07 08:17 -33.91129 151.11488 3279 ft 192 kts 313°
2026-05-07 08:18 -33.90005 151.10464 3421 ft 212 kts 313°
2026-05-07 08:18 -33.88809 151.09322 3796 ft 227 kts 313°
2026-05-07 08:18 -33.87533 151.08070 4220 ft 242 kts 313°
2026-05-07 08:18 -33.86210 151.06755 4790 ft 248 kts 313°
2026-05-07 08:19 -33.84869 151.05390 5044 ft 259 kts 313°
2026-05-07 08:19 -33.83478 151.03967 5007 ft 255 kts 313°
2026-05-07 08:19 -33.82139 151.02583 5030 ft 255 kts 313°
2026-05-07 08:19 -33.80775 151.01176 5030 ft 261 kts 312°
2026-05-07 08:20 -33.79393 150.99733 5125 ft 265 kts 312°
2026-05-07 08:20 -33.78043 150.98239 5827 ft 261 kts 304°
2026-05-07 08:20 -33.77208 150.96380 6564 ft 249 kts 280°
2026-05-07 08:20 -33.76850 150.94365 7254 ft 251 kts 277°
2026-05-07 08:21 -33.76510 150.92290 7903 ft 254 kts 278°
2026-05-07 08:21 -33.76120 150.90182 8499 ft 260 kts 280°
2026-05-07 08:21 -33.75713 150.88048 9167 ft 263 kts 278°
2026-05-07 08:21 -33.75346 150.85878 9877 ft 265 kts 278°
2026-05-07 08:22 -33.74983 150.83696 10537 ft 270 kts 278°
2026-05-07 08:22 -33.74616 150.81389 10738 ft 291 kts 277°
2026-05-07 08:22 -33.74230 150.78941 10922 ft 313 kts 277°
2026-05-07 08:22 -33.73815 150.76277 11120 ft 335 kts 277°
2026-05-07 08:23 -33.73387 150.73474 11636 ft 345 kts 277°
2026-05-07 08:23 -33.72957 150.70615 12273 ft 352 kts 277°
2026-05-07 08:23 -33.72509 150.67705 13173 ft 353 kts 277°
2026-05-07 08:23 -33.72063 150.64793 13994 ft 356 kts 277°
2026-05-07 08:24 -33.71617 150.61854 14750 ft 358 kts 277°
2026-05-07 08:24 -33.71175 150.58896 15431 ft 362 kts 277°
2026-05-07 08:24 -33.70724 150.55909 16054 ft 366 kts 277°
2026-05-07 08:24 -33.70262 150.52881 16697 ft 369 kts 277°
2026-05-07 08:25 -33.69815 150.49842 17356 ft 370 kts 277°
2026-05-07 08:25 -33.69349 150.46818 17850 ft 376 kts 278°
2026-05-07 08:25 -33.68866 150.43728 18340 ft 379 kts 277°
2026-05-07 08:25 -33.68392 150.40599 18894 ft 383 kts 277°
2026-05-07 08:26 -33.67736 150.34273 19920 ft 379 kts 264°
2026-05-07 08:26 -33.67885 150.31076 20174 ft 388 kts 267°
2026-05-07 08:26 -33.67941 150.27823 20704 ft 390 kts 266°
2026-05-07 08:27 -33.67980 150.24569 21334 ft 392 kts 268°
2026-05-07 08:27 -33.67808 150.21324 21916 ft 395 kts 273°
2026-05-07 08:27 -33.67394 150.18043 22439 ft 400 kts 277°
2026-05-07 08:27 -33.66782 150.14766 22937 ft 405 kts 281°
2026-05-07 08:28 -33.66029 150.11475 23422 ft 410 kts 282°
2026-05-07 08:28 -33.65193 150.08198 23955 ft 412 kts 283°
2026-05-07 08:28 -33.64310 150.04914 24462 ft 415 kts 284°
2026-05-07 08:28 -33.63401 150.01607 24956 ft 417 kts 284°
2026-05-07 08:29 -33.62481 149.98289 25434 ft 420 kts 284°
2026-05-07 08:29 -33.61559 149.94962 25862 ft 423 kts 284°
2026-05-07 08:29 -33.60623 149.91584 26221 ft 427 kts 284°
2026-05-07 08:29 -33.59683 149.88179 26656 ft 429 kts 284°
2026-05-07 08:30 -33.58755 149.84819 27089 ft 431 kts 284°
2026-05-07 08:30 -33.57812 149.81403 27543 ft 433 kts 284°
2026-05-07 08:30 -33.56863 149.77966 27986 ft 434 kts 284°
2026-05-07 08:30 -33.55897 149.74475 28393 ft 436 kts 284°
2026-05-07 08:31 -33.54951 149.71054 28740 ft 439 kts 284°
2026-05-07 08:31 -33.53987 149.67571 29106 ft 440 kts 284°
2026-05-07 08:31 -33.53018 149.64077 29445 ft 443 kts 284°
2026-05-07 08:31 -33.52046 149.60577 29783 ft 444 kts 284°
2026-05-07 08:32 -33.51068 149.57057 30096 ft 445 kts 284°
2026-05-07 08:32 -33.50087 149.53532 30480 ft 445 kts 284°
2026-05-07 08:32 -33.49108 149.50023 30937 ft 442 kts 284°
2026-05-07 08:32 -33.48136 149.46549 31374 ft 440 kts 284°
2026-05-07 08:33 -33.47165 149.43072 31789 ft 437 kts 284°
2026-05-07 08:33 -33.46214 149.39670 32165 ft 435 kts 284°
2026-05-07 08:33 -33.44284 149.32783 32148 ft 433 kts 284°
2026-05-07 08:34 -33.42372 149.25973 32161 ft 434 kts 284°
2026-05-07 08:34 -33.40437 149.19110 32161 ft 435 kts 284°
2026-05-07 08:35 -33.38496 149.12222 32163 ft 436 kts 283°
2026-05-07 08:35 -33.36548 149.05339 32170 ft 436 kts 283°
2026-05-07 08:36 -33.34603 148.98471 32178 ft 436 kts 283°
2026-05-07 08:36 -33.32657 148.91623 32182 ft 437 kts 283°
2026-05-07 08:37 -33.30691 148.84720 32193 ft 437 kts 283°
2026-05-07 08:37 -33.28728 148.77846 32192 ft 437 kts 283°
2026-05-07 08:38 -33.26770 148.71013 32196 ft 437 kts 282°
2026-05-07 08:38 -33.24789 148.64118 32212 ft 438 kts 282°
2026-05-07 08:39 -33.22809 148.57228 32226 ft 438 kts 282°
2026-05-07 08:39 -33.20827 148.50350 32225 ft 438 kts 282°
2026-05-07 08:40 -33.18846 148.43496 32234 ft 439 kts 282°
2026-05-07 08:40 -33.17182 148.37753 32237 ft 440 kts 282°
2026-05-07 08:41 -33.14846 148.29703 32228 ft 441 kts 282°
2026-05-07 08:41 -33.13148 148.23907 32229 ft 443 kts 283°
2026-05-07 08:42 -33.10778 148.17138 32246 ft 446 kts 286°
2026-05-07 08:42 -33.08285 148.10360 32250 ft 445 kts 286°
2026-05-07 08:43 -33.05799 148.03587 32245 ft 445 kts 286°
2026-05-07 08:43 -33.03325 147.96836 32251 ft 444 kts 286°
2026-05-07 08:44 -33.00864 147.90096 32247 ft 446 kts 285°
2026-05-07 08:44 -32.98378 147.83293 32261 ft 449 kts 285°
2026-05-07 08:45 -32.95866 147.76452 32263 ft 451 kts 286°
2026-05-07 08:45 -32.93362 147.69629 32258 ft 452 kts 286°
2026-05-07 08:46 -32.90834 147.62779 32262 ft 452 kts 286°
2026-05-07 08:46 -32.88298 147.55922 32257 ft 451 kts 286°
2026-05-07 08:47 -32.85776 147.49100 32255 ft 450 kts 286°
2026-05-07 08:47 -32.83262 147.42311 32245 ft 450 kts 286°
2026-05-07 08:48 -32.80733 147.35501 32250 ft 449 kts 287°
2026-05-07 08:48 -32.78212 147.28741 32248 ft 449 kts 287°
2026-05-07 08:49 -32.75682 147.21945 32248 ft 450 kts 287°
2026-05-07 08:49 -32.73143 147.15138 32246 ft 449 kts 287°
2026-05-07 08:50 -32.70615 147.08392 32250 ft 451 kts 287°
2026-05-07 08:50 -32.68046 147.01554 32252 ft 451 kts 287°
2026-05-07 08:51 -32.65500 146.94778 32244 ft 452 kts 287°
2026-05-07 08:51 -32.62925 146.87942 32252 ft 452 kts 287°
2026-05-07 08:52 -32.60347 146.81104 32246 ft 454 kts 287°
2026-05-07 08:52 -32.57780 146.74313 32248 ft 455 kts 287°
2026-05-07 08:53 -32.55179 146.67454 32249 ft 456 kts 288°
2026-05-07 08:53 -32.52573 146.60591 32245 ft 456 kts 288°
2026-05-07 08:54 -32.49961 146.53729 32246 ft 457 kts 288°
2026-05-07 08:54 -32.47359 146.46897 32252 ft 458 kts 288°
2026-05-07 08:55 -32.44727 146.40018 32251 ft 458 kts 288°
2026-05-07 08:55 -32.42093 146.33124 32249 ft 459 kts 288°
2026-05-07 08:56 -32.39452 146.26246 32247 ft 459 kts 289°
2026-05-07 08:56 -32.36814 146.19382 32247 ft 458 kts 289°
2026-05-07 08:57 -32.34186 146.12559 32250 ft 458 kts 289°
2026-05-07 08:57 -32.31543 146.05705 32246 ft 458 kts 289°
2026-05-07 08:58 -32.28893 145.98852 32251 ft 458 kts 289°
2026-05-07 08:58 -32.26249 145.92027 32246 ft 459 kts 289°
2026-05-07 08:59 -32.23589 145.85170 32253 ft 459 kts 289°
2026-05-07 08:59 -32.20918 145.78302 32263 ft 459 kts 289°
2026-05-07 09:00 -32.18246 145.71445 32271 ft 459 kts 289°
2026-05-07 09:00 -32.15571 145.64587 32270 ft 460 kts 289°
2026-05-07 09:01 -32.12889 145.57730 32265 ft 460 kts 289°
2026-05-07 09:01 -32.10217 145.50912 32263 ft 460 kts 289°
2026-05-07 09:02 -32.07524 145.44058 32269 ft 461 kts 289°
2026-05-07 09:02 -32.04822 145.37186 32269 ft 463 kts 289°
2026-05-07 09:03 -32.02103 145.30290 32265 ft 464 kts 290°
2026-05-07 09:03 -31.99368 145.23392 32266 ft 465 kts 290°
2026-05-07 09:04 -31.96625 145.16489 32270 ft 464 kts 291°
2026-05-07 09:04 -31.93912 145.09678 32263 ft 461 kts 291°
2026-05-07 09:05 -31.91190 145.02854 32266 ft 459 kts 291°
2026-05-07 09:05 -31.88480 144.96066 32265 ft 458 kts 291°
2026-05-07 09:06 -31.85763 144.89264 32270 ft 459 kts 291°
2026-05-07 09:06 -31.83046 144.82487 32272 ft 461 kts 291°
2026-05-07 09:07 -31.80305 144.75652 32268 ft 463 kts 291°
2026-05-07 09:07 -31.77546 144.68788 32267 ft 464 kts 291°
2026-05-07 09:08 -31.74767 144.61902 32277 ft 466 kts 291°
2026-05-07 09:08 -31.72004 144.55062 32278 ft 468 kts 291°
2026-05-07 09:09 -31.69206 144.48147 32277 ft 469 kts 291°
2026-05-07 09:09 -31.66398 144.41222 32301 ft 470 kts 292°
2026-05-07 09:10 -31.63575 144.34273 32313 ft 470 kts 292°
2026-05-07 09:10 -31.60768 144.27376 32312 ft 471 kts 292°
2026-05-07 09:11 -31.57938 144.20435 32315 ft 472 kts 292°
2026-05-07 09:11 -31.55096 144.13485 32317 ft 472 kts 292°
2026-05-07 09:12 -31.52250 144.06531 32328 ft 471 kts 293°
2026-05-07 09:12 -31.49435 143.99667 32317 ft 469 kts 293°
2026-05-07 09:13 -31.46614 143.92807 32327 ft 467 kts 293°
2026-05-07 09:13 -31.43793 143.85955 32329 ft 466 kts 293°
2026-05-07 09:14 -31.40975 143.79121 32331 ft 466 kts 293°
2026-05-07 09:14 -31.38148 143.72287 32331 ft 466 kts 293°
2026-05-07 09:15 -31.35324 143.65462 32332 ft 466 kts 293°
2026-05-07 09:15 -31.32509 143.58681 32344 ft 465 kts 293°
2026-05-07 09:16 -31.29675 143.51857 32338 ft 465 kts 294°
2026-05-07 09:16 -31.26839 143.45044 32341 ft 465 kts 294°
2026-05-07 09:17 -31.24022 143.38290 32310 ft 465 kts 294°
2026-05-07 09:17 -31.21183 143.31503 32304 ft 465 kts 294°
2026-05-07 09:18 -31.18335 143.24701 32302 ft 464 kts 294°
2026-05-07 09:18 -31.15502 143.17944 32305 ft 463 kts 294°
2026-05-07 09:19 -31.12678 143.11227 32303 ft 463 kts 294°
2026-05-07 09:19 -31.09839 143.04481 32305 ft 463 kts 294°
2026-05-07 09:20 -31.06994 142.97737 32303 ft 463 kts 294°
2026-05-07 09:20 -31.04149 142.91000 32304 ft 463 kts 294°
2026-05-07 09:21 -31.01296 142.84261 32304 ft 463 kts 294°
2026-05-07 09:21 -30.98460 142.77574 32302 ft 463 kts 294°
2026-05-07 09:22 -30.95603 142.70855 32310 ft 463 kts 294°
2026-05-07 09:22 -30.92741 142.64131 32312 ft 463 kts 294°
2026-05-07 09:23 -30.89874 142.57406 32310 ft 463 kts 294°
2026-05-07 09:23 -30.87008 142.50694 32315 ft 462 kts 294°
2026-05-07 09:24 -30.84160 142.44038 32314 ft 462 kts 294°
2026-05-07 09:24 -30.81290 142.37344 32321 ft 461 kts 294°
2026-05-07 09:25 -30.78428 142.30679 32320 ft 460 kts 294°
2026-05-07 09:25 -30.75578 142.24055 32320 ft 459 kts 295°
2026-05-07 09:26 -30.72719 142.17418 32328 ft 458 kts 295°
2026-05-07 09:26 -30.69865 142.10802 32328 ft 457 kts 295°
2026-05-07 09:27 -30.67012 142.04201 32331 ft 456 kts 295°
2026-05-07 09:28 -30.62743 141.94351 32327 ft 456 kts 295°
2026-05-07 09:28 -30.59884 141.87768 32336 ft 456 kts 295°
2026-05-07 09:29 -30.57025 141.81198 32338 ft 456 kts 295°
2026-05-07 09:29 -30.54643 141.75730 32340 ft 456 kts 295°
2026-05-07 09:30 -30.51773 141.69159 32340 ft 456 kts 295°
2026-05-07 09:30 -30.48898 141.62576 32342 ft 456 kts 295°
2026-05-07 09:31 -30.46025 141.56018 32346 ft 456 kts 295°
2026-05-07 09:31 -30.43148 141.49458 32348 ft 457 kts 295°
2026-05-07 09:32 -30.40280 141.42932 32351 ft 457 kts 295°
2026-05-07 09:32 -30.37391 141.36363 32353 ft 457 kts 295°
2026-05-07 09:33 -30.34494 141.29797 32348 ft 458 kts 295°
2026-05-07 09:33 -30.31588 141.23216 32368 ft 458 kts 295°
2026-05-07 09:34 -30.28701 141.16681 32368 ft 459 kts 295°
2026-05-07 09:34 -30.25793 141.10108 32377 ft 459 kts 295°
2026-05-07 09:35 -30.22877 141.03531 32379 ft 459 kts 295°
2026-05-07 09:35 -30.19954 140.96947 32375 ft 460 kts 296°
2026-05-07 09:36 -30.17017 140.90367 32377 ft 460 kts 296°
2026-05-07 09:36 -30.14089 140.83833 32378 ft 460 kts 296°
2026-05-07 09:37 -30.11138 140.77259 32377 ft 460 kts 296°
2026-05-07 09:37 -30.08197 140.70696 32386 ft 460 kts 296°
2026-05-07 09:38 -30.05246 140.64128 32388 ft 459 kts 296°
2026-05-07 09:38 -30.02319 140.57631 32385 ft 459 kts 296°
2026-05-07 09:39 -29.99366 140.51086 32388 ft 458 kts 296°
2026-05-07 09:39 -29.96418 140.44562 32387 ft 457 kts 296°
2026-05-07 09:40 -29.93498 140.38111 32385 ft 455 kts 296°
2026-05-07 09:40 -29.90571 140.31656 32395 ft 454 kts 296°
2026-05-07 09:41 -29.87634 140.25186 32396 ft 454 kts 296°
2026-05-07 09:41 -29.84704 140.18740 32398 ft 455 kts 296°
2026-05-07 09:42 -29.81775 140.12314 32395 ft 456 kts 296°
2026-05-07 09:42 -29.78816 140.05836 32408 ft 456 kts 296°
2026-05-07 09:43 -29.75868 139.99378 32406 ft 456 kts 296°
2026-05-07 09:43 -29.72902 139.92901 32401 ft 457 kts 296°
2026-05-07 09:44 -29.69941 139.86441 32408 ft 457 kts 296°
2026-05-07 09:44 -29.66970 139.79974 32405 ft 457 kts 296°
2026-05-07 09:45 -29.63998 139.73511 32404 ft 457 kts 296°
2026-05-07 09:45 -29.61044 139.67097 32404 ft 456 kts 296°
2026-05-07 09:46 -29.58073 139.60655 32407 ft 456 kts 296°
2026-05-07 09:46 -29.55098 139.54215 32404 ft 455 kts 296°
2026-05-07 09:47 -29.52128 139.47794 32411 ft 454 kts 296°
2026-05-07 09:47 -29.49177 139.41425 32409 ft 454 kts 297°
2026-05-07 09:48 -29.46209 139.35029 32406 ft 454 kts 297°
2026-05-07 09:48 -29.43237 139.28635 32407 ft 454 kts 297°
2026-05-07 09:49 -29.40257 139.22235 32402 ft 455 kts 297°
2026-05-07 09:49 -29.37270 139.15829 32404 ft 455 kts 297°
2026-05-07 09:50 -29.34305 139.09484 32405 ft 455 kts 297°
2026-05-07 09:50 -29.31308 139.03075 32403 ft 455 kts 297°
2026-05-07 09:51 -29.28312 138.96685 32404 ft 455 kts 297°
2026-05-07 09:51 -29.25308 138.90288 32404 ft 455 kts 297°
2026-05-07 09:52 -29.22327 138.83941 32404 ft 455 kts 297°
2026-05-07 09:52 -29.19329 138.77570 32403 ft 454 kts 297°
2026-05-07 09:53 -29.16325 138.71204 32405 ft 454 kts 297°
2026-05-07 09:53 -29.13316 138.64837 32403 ft 454 kts 297°
2026-05-07 09:54 -29.10309 138.58481 32407 ft 454 kts 297°
2026-05-07 09:54 -29.07313 138.52154 32403 ft 455 kts 297°
2026-05-07 09:55 -29.04289 138.45783 32410 ft 455 kts 297°
2026-05-07 09:55 -29.01282 138.39457 32420 ft 455 kts 297°
2026-05-07 09:56 -28.98252 138.33094 32425 ft 455 kts 297°
2026-05-07 09:56 -28.95225 138.26747 32424 ft 455 kts 297°
2026-05-07 09:57 -28.92209 138.20430 32423 ft 455 kts 297°
2026-05-07 09:57 -28.89157 138.14054 32421 ft 455 kts 297°
2026-05-07 09:58 -28.86132 138.07738 32422 ft 455 kts 297°
2026-05-07 09:58 -28.83091 138.01399 32423 ft 455 kts 297°
2026-05-07 09:59 -28.80065 137.95099 32415 ft 455 kts 298°
2026-05-07 09:59 -28.77015 137.88767 32413 ft 455 kts 298°
2026-05-07 10:00 -28.73981 137.82473 32415 ft 455 kts 298°
2026-05-07 10:00 -28.70928 137.76152 32414 ft 455 kts 298°
2026-05-07 10:01 -28.67865 137.69815 32415 ft 455 kts 298°
2026-05-07 10:01 -28.64805 137.63491 32411 ft 455 kts 298°
2026-05-07 10:02 -28.61756 137.57210 32415 ft 455 kts 298°
2026-05-07 10:02 -28.58688 137.50899 32412 ft 455 kts 298°
2026-05-07 10:03 -28.55633 137.44618 32414 ft 455 kts 298°
2026-05-07 10:03 -28.52558 137.38307 32412 ft 455 kts 298°
2026-05-07 10:04 -28.49487 137.32017 32412 ft 455 kts 298°
2026-05-07 10:04 -28.46413 137.25728 32413 ft 455 kts 298°
2026-05-07 10:05 -28.43327 137.19415 32407 ft 456 kts 298°
2026-05-07 10:05 -28.40238 137.13115 32407 ft 456 kts 298°
2026-05-07 10:06 -28.37158 137.06843 32407 ft 456 kts 298°
2026-05-07 10:06 -28.34057 137.00539 32406 ft 456 kts 298°
2026-05-07 10:07 -28.30958 136.94243 32403 ft 456 kts 298°
2026-05-07 10:07 -28.27856 136.87951 32408 ft 457 kts 298°
2026-05-07 10:08 -28.24762 136.81687 32403 ft 457 kts 298°
2026-05-07 10:08 -28.21650 136.75397 32404 ft 457 kts 298°
2026-05-07 10:09 -28.18546 136.69152 32404 ft 457 kts 298°
2026-05-07 10:09 -28.15420 136.62874 32404 ft 457 kts 298°
2026-05-07 10:10 -28.12296 136.56608 32399 ft 457 kts 298°
2026-05-07 10:10 -28.09156 136.50314 32395 ft 457 kts 299°
2026-05-07 10:11 -28.06050 136.44099 32394 ft 456 kts 299°
2026-05-07 10:11 -28.02920 136.37846 32397 ft 456 kts 299°
2026-05-07 10:12 -27.99788 136.31599 32404 ft 456 kts 299°
2026-05-07 10:12 -27.96654 136.25353 32399 ft 456 kts 299°
2026-05-07 10:13 -27.93518 136.19115 32395 ft 456 kts 299°
2026-05-07 10:13 -27.90379 136.12877 32395 ft 456 kts 299°
2026-05-07 10:14 -27.87249 136.06669 32395 ft 456 kts 299°
2026-05-07 10:14 -27.84102 136.00435 32397 ft 456 kts 299°
2026-05-07 10:15 -27.80944 135.94195 32395 ft 457 kts 299°
2026-05-07 10:15 -27.77806 135.88002 32396 ft 457 kts 299°
2026-05-07 10:16 -27.74641 135.81758 32395 ft 457 kts 299°
2026-05-07 10:16 -27.71483 135.75538 32385 ft 457 kts 299°
2026-05-07 10:17 -27.68318 135.69318 32388 ft 456 kts 299°
2026-05-07 10:17 -27.65171 135.63138 32388 ft 456 kts 299°
2026-05-07 10:18 -27.62013 135.56944 32385 ft 456 kts 299°
2026-05-07 10:18 -27.59384 135.51796 32387 ft 455 kts 299°
2026-05-07 10:19 -27.56220 135.45610 32385 ft 455 kts 300°
2026-05-07 10:19 -27.53065 135.39422 32386 ft 455 kts 299°
2026-05-07 10:20 -27.49923 135.33232 32387 ft 455 kts 299°
2026-05-07 10:20 -27.46781 135.27043 32378 ft 455 kts 299°
2026-05-07 10:21 -27.43649 135.20889 32377 ft 455 kts 299°
2026-05-07 10:21 -27.40499 135.14710 32376 ft 455 kts 299°
2026-05-07 10:22 -27.37338 135.08519 32379 ft 455 kts 299°
2026-05-07 10:22 -27.34199 135.02380 32376 ft 455 kts 300°
2026-05-07 10:23 -27.31039 134.96209 32378 ft 454 kts 300°
2026-05-07 10:23 -27.27879 134.90046 32377 ft 454 kts 300°
2026-05-07 10:24 -27.24733 134.83918 32377 ft 454 kts 300°
2026-05-07 10:24 -27.21566 134.77761 32371 ft 455 kts 300°
2026-05-07 10:25 -27.18401 134.71614 32367 ft 455 kts 300°
2026-05-07 10:25 -27.15231 134.65465 32366 ft 455 kts 300°
2026-05-07 10:26 -27.12059 134.59323 32369 ft 454 kts 300°
2026-05-07 10:26 -27.08884 134.53182 32364 ft 454 kts 300°
2026-05-07 10:27 -27.05725 134.47085 32368 ft 454 kts 300°
2026-05-07 10:27 -27.02545 134.40954 32369 ft 455 kts 300°
2026-05-07 10:28 -26.99354 134.34810 32370 ft 455 kts 300°
2026-05-07 10:28 -26.96172 134.28689 32367 ft 455 kts 300°
2026-05-07 10:29 -26.92977 134.22551 32362 ft 455 kts 300°
2026-05-07 10:29 -26.89799 134.16458 32354 ft 455 kts 300°
2026-05-07 10:30 -26.85011 134.07293 32362 ft 454 kts 300°
2026-05-07 10:30 -26.81815 134.01186 32348 ft 454 kts 300°
2026-05-07 10:31 -26.78614 133.95078 32350 ft 454 kts 300°
2026-05-07 10:31 -26.75415 133.88982 32367 ft 455 kts 300°
2026-05-07 10:32 -26.72204 133.82869 32349 ft 455 kts 300°
2026-05-07 10:32 -26.69013 133.76802 32368 ft 455 kts 300°
2026-05-07 10:33 -26.65784 133.70674 32500 ft 459 kts 300°
2026-05-07 10:33 -26.64171 133.67617 32979 ft 454 kts 300°
2026-05-07 10:33 -26.62573 133.64589 33506 ft 449 kts 300°
2026-05-07 10:34 -26.61006 133.61624 33927 ft 447 kts 300°
2026-05-07 10:34 -26.59431 133.58643 34270 ft 446 kts 300°
2026-05-07 10:34 -26.56252 133.52638 34358 ft 447 kts 300°
2026-05-07 10:35 -26.53093 133.46674 34352 ft 445 kts 300°
2026-05-07 10:35 -26.49969 133.40783 34359 ft 443 kts 300°
2026-05-07 10:36 -26.46831 133.34876 34358 ft 442 kts 300°
2026-05-07 10:36 -26.43690 133.28969 34362 ft 442 kts 300°
2026-05-07 10:37 -26.40543 133.23060 34357 ft 444 kts 300°
2026-05-07 10:37 -26.37393 133.17152 34356 ft 445 kts 300°
2026-05-07 10:38 -26.34221 133.11214 34350 ft 446 kts 300°
2026-05-07 10:38 -26.31036 133.05254 34352 ft 447 kts 300°
2026-05-07 10:39 -26.27869 132.99337 34067 ft 443 kts 300°
2026-05-07 10:39 -26.26300 132.96409 33666 ft 445 kts 300°
2026-05-07 10:39 -26.24700 132.93424 33230 ft 449 kts 300°
2026-05-07 10:40 -26.23093 132.90429 32829 ft 451 kts 300°
2026-05-07 10:40 -26.21475 132.87415 32441 ft 453 kts 300°
2026-05-07 10:40 -26.19853 132.84398 32036 ft 455 kts 300°
2026-05-07 10:40 -26.18238 132.81398 31640 ft 456 kts 300°
2026-05-07 10:41 -26.16599 132.78354 31212 ft 458 kts 300°
2026-05-07 10:41 -26.14954 132.75302 30763 ft 461 kts 300°
2026-05-07 10:41 -26.13302 132.72236 30426 ft 463 kts 301°
2026-05-07 10:41 -26.11639 132.69153 30358 ft 466 kts 301°
2026-05-07 10:42 -26.08306 132.62980 30343 ft 463 kts 301°
2026-05-07 10:42 -26.05003 132.56869 30348 ft 463 kts 301°
2026-05-07 10:43 -26.01676 132.50718 30350 ft 463 kts 301°
2026-05-07 10:43 -25.98341 132.44570 30350 ft 463 kts 301°
2026-05-07 10:44 -25.95009 132.38431 30348 ft 463 kts 300°
2026-05-07 10:44 -25.91706 132.32353 30349 ft 462 kts 301°
2026-05-07 10:45 -25.88377 132.26234 30351 ft 462 kts 301°
2026-05-07 10:45 -25.85050 132.20129 30348 ft 461 kts 301°
2026-05-07 10:46 -25.81743 132.14069 30351 ft 462 kts 301°
2026-05-07 10:46 -25.78411 132.07968 30349 ft 462 kts 301°
2026-05-07 10:47 -25.75066 132.01853 30350 ft 463 kts 301°
2026-05-07 10:47 -25.71736 131.95778 30349 ft 463 kts 301°
2026-05-07 10:48 -25.68388 131.89672 30352 ft 463 kts 301°
2026-05-07 10:48 -25.65041 131.83576 30352 ft 462 kts 301°
2026-05-07 10:49 -25.61689 131.77482 30349 ft 462 kts 301°
2026-05-07 10:49 -25.58356 131.71430 30350 ft 462 kts 301°
2026-05-07 10:50 -25.55004 131.65353 30350 ft 462 kts 301°
2026-05-07 10:50 -25.51672 131.59317 30348 ft 461 kts 301°
2026-05-07 10:51 -25.48325 131.53262 30349 ft 461 kts 301°
2026-05-07 10:51 -25.44971 131.47199 30349 ft 460 kts 301°
2026-05-07 10:52 -25.41640 131.41187 30353 ft 460 kts 301°
2026-05-07 10:52 -25.38285 131.35144 30349 ft 460 kts 301°
2026-05-07 10:53 -25.34934 131.29115 30349 ft 460 kts 301°
2026-05-07 10:53 -25.31582 131.23091 30349 ft 460 kts 301°
2026-05-07 10:54 -25.28243 131.17095 30350 ft 459 kts 301°
2026-05-07 10:54 -25.24890 131.11084 30350 ft 459 kts 301°
2026-05-07 10:55 -25.21540 131.05084 30349 ft 459 kts 301°
2026-05-07 10:55 -25.18174 130.99074 30353 ft 459 kts 302°
2026-05-07 10:56 -25.14335 130.93478 30353 ft 460 kts 309°
2026-05-07 10:56 -25.10192 130.88090 30352 ft 460 kts 309°
2026-05-07 10:57 -25.06061 130.82693 30350 ft 460 kts 309°
2026-05-07 10:57 -25.01931 130.77273 30350 ft 460 kts 308°
2026-05-07 10:58 -24.97819 130.71871 30350 ft 460 kts 308°
2026-05-07 10:58 -24.93736 130.66514 30350 ft 460 kts 308°
2026-05-07 10:59 -24.89619 130.61115 30348 ft 460 kts 308°
2026-05-07 10:59 -24.85496 130.55719 30348 ft 459 kts 308°
2026-05-07 11:00 -24.81374 130.50330 30350 ft 459 kts 308°
2026-05-07 11:00 -24.77262 130.44959 30349 ft 459 kts 308°
2026-05-07 11:01 -24.73147 130.39590 30349 ft 458 kts 308°
2026-05-07 11:01 -24.69061 130.34265 30350 ft 458 kts 308°
2026-05-07 11:02 -24.64941 130.28902 30349 ft 458 kts 308°
2026-05-07 11:02 -24.60824 130.23550 30352 ft 457 kts 308°
2026-05-07 11:03 -24.56713 130.18210 30349 ft 457 kts 308°
2026-05-07 11:03 -24.52620 130.12900 30351 ft 458 kts 308°
2026-05-07 11:04 -24.48502 130.07562 30351 ft 457 kts 308°
2026-05-07 11:04 -24.44386 130.02235 30349 ft 457 kts 308°
2026-05-07 11:05 -24.40268 129.96912 30349 ft 457 kts 308°
2026-05-07 11:05 -24.36176 129.91628 30340 ft 457 kts 308°
2026-05-07 11:06 -24.32056 129.86311 30343 ft 457 kts 308°
2026-05-07 11:06 -24.27935 129.80998 30340 ft 457 kts 308°
2026-05-07 11:07 -24.23836 129.75721 30341 ft 457 kts 308°
2026-05-07 11:07 -24.19708 129.70415 30339 ft 457 kts 308°
2026-05-07 11:08 -24.16276 129.66006 30341 ft 457 kts 308°
2026-05-07 11:08 -24.12146 129.60705 30341 ft 457 kts 308°
2026-05-07 11:09 -24.08004 129.55393 30339 ft 457 kts 308°
2026-05-07 11:09 -24.03886 129.50117 30343 ft 458 kts 308°
2026-05-07 11:10 -23.99736 129.44810 30340 ft 458 kts 308°
2026-05-07 11:10 -23.95583 129.39504 30344 ft 458 kts 308°
2026-05-07 11:11 -23.91470 129.34253 30338 ft 457 kts 308°
2026-05-07 11:11 -23.87326 129.28970 30342 ft 456 kts 308°
2026-05-07 11:12 -23.83201 129.23716 30327 ft 456 kts 308°
2026-05-07 11:12 -23.79087 129.18482 30298 ft 456 kts 308°
2026-05-07 11:13 -23.74945 129.13217 30294 ft 456 kts 308°
2026-05-07 11:13 -23.70797 129.07947 30295 ft 457 kts 308°
2026-05-07 11:14 -23.66673 129.02717 30292 ft 458 kts 308°
2026-05-07 11:14 -23.62519 128.97455 30286 ft 458 kts 308°
2026-05-07 11:15 -23.58359 128.92192 30287 ft 458 kts 308°
2026-05-07 11:15 -23.54193 128.86923 30286 ft 459 kts 308°
2026-05-07 11:16 -23.50014 128.81645 30284 ft 459 kts 308°
2026-05-07 11:16 -23.45865 128.76410 30282 ft 459 kts 308°
2026-05-07 11:17 -23.41684 128.71141 30275 ft 459 kts 308°
2026-05-07 11:17 -23.37506 128.65881 30274 ft 459 kts 308°
2026-05-07 11:18 -23.33324 128.60621 30252 ft 459 kts 308°
2026-05-07 11:18 -23.29166 128.55397 30249 ft 459 kts 308°
2026-05-07 11:19 -23.24980 128.50139 30249 ft 459 kts 308°
2026-05-07 11:19 -23.20799 128.44898 30252 ft 459 kts 308°
2026-05-07 11:20 -23.16637 128.39694 30262 ft 459 kts 308°
2026-05-07 11:20 -23.12449 128.34464 30241 ft 459 kts 308°
2026-05-07 11:21 -23.08248 128.29222 30242 ft 458 kts 308°
2026-05-07 11:21 -23.04091 128.24039 30238 ft 458 kts 308°
2026-05-07 11:22 -22.99898 128.18818 30237 ft 458 kts 308°
2026-05-07 11:22 -22.95711 128.13604 30230 ft 458 kts 308°
2026-05-07 11:23 -22.91531 128.08406 30231 ft 457 kts 308°
2026-05-07 11:23 -22.87344 128.03206 30207 ft 456 kts 308°
2026-05-07 11:24 -22.83164 127.98017 30197 ft 455 kts 308°
2026-05-07 11:24 -22.79014 127.92873 30194 ft 456 kts 308°
2026-05-07 11:25 -22.74819 127.87683 30195 ft 457 kts 308°
2026-05-07 11:25 -22.70646 127.82521 30195 ft 457 kts 308°
2026-05-07 11:26 -22.66457 127.77344 30195 ft 457 kts 308°
2026-05-07 11:26 -22.62255 127.72156 30186 ft 457 kts 308°
2026-05-07 11:27 -22.58064 127.66986 30184 ft 456 kts 308°
2026-05-07 11:27 -22.53901 127.61859 30187 ft 456 kts 308°
2026-05-07 11:28 -22.49709 127.56699 30181 ft 456 kts 308°
2026-05-07 11:28 -22.45516 127.51543 30174 ft 456 kts 308°
2026-05-07 11:29 -22.41323 127.46391 30176 ft 456 kts 308°
2026-05-07 11:29 -22.37129 127.41245 30174 ft 455 kts 308°
2026-05-07 11:30 -22.32952 127.36125 30175 ft 456 kts 308°
2026-05-07 11:30 -22.28752 127.30980 30169 ft 456 kts 308°
2026-05-07 11:31 -22.24577 127.25872 30168 ft 456 kts 308°
2026-05-07 11:31 -22.20369 127.20728 30168 ft 457 kts 308°
2026-05-07 11:32 -22.14054 127.13015 30159 ft 457 kts 308°
2026-05-07 11:33 -22.09836 127.07874 30158 ft 457 kts 308°
2026-05-07 11:33 -22.05614 127.02733 30154 ft 458 kts 308°
2026-05-07 11:34 -22.01410 126.97617 30155 ft 458 kts 308°
2026-05-07 11:34 -21.97171 126.92464 30156 ft 458 kts 308°
2026-05-07 11:35 -21.92948 126.87336 30147 ft 456 kts 308°
2026-05-07 11:35 -21.88740 126.82228 30143 ft 455 kts 308°
2026-05-07 11:36 -21.84562 126.77166 30148 ft 454 kts 308°
2026-05-07 11:36 -21.80361 126.72079 30147 ft 454 kts 308°
2026-05-07 11:37 -21.76157 126.66990 30138 ft 455 kts 308°
2026-05-07 11:37 -21.71950 126.61904 30137 ft 455 kts 308°
2026-05-07 11:38 -21.67732 126.56810 30143 ft 456 kts 308°
2026-05-07 11:38 -21.63524 126.51733 30138 ft 457 kts 308°
2026-05-07 11:39 -21.59288 126.46626 30136 ft 458 kts 308°
2026-05-07 11:39 -21.55038 126.41510 30129 ft 458 kts 308°
2026-05-07 11:40 -21.50797 126.36410 30128 ft 457 kts 308°
2026-05-07 11:40 -21.46564 126.31322 30129 ft 457 kts 308°
2026-05-07 11:41 -21.42350 126.26261 30123 ft 456 kts 308°
2026-05-07 11:41 -21.38111 126.21174 30116 ft 456 kts 308°
2026-05-07 11:42 -21.33881 126.16106 30132 ft 456 kts 308°
2026-05-07 11:42 -21.29646 126.11035 30138 ft 455 kts 308°
2026-05-07 11:43 -21.25441 126.06005 30140 ft 455 kts 308°
2026-05-07 11:43 -21.21211 126.00949 30139 ft 455 kts 308°
2026-05-07 11:44 -21.16980 125.95896 30127 ft 455 kts 307°
2026-05-07 11:44 -21.12769 125.90873 30132 ft 455 kts 307°
2026-05-07 11:45 -21.08533 125.85823 30131 ft 455 kts 307°
2026-05-07 11:45 -21.04302 125.80785 30131 ft 454 kts 307°
2026-05-07 11:46 -21.00074 125.75754 30133 ft 454 kts 307°
2026-05-07 11:46 -20.95884 125.70772 30122 ft 453 kts 307°
2026-05-07 11:47 -20.91656 125.65751 30119 ft 453 kts 307°
2026-05-07 11:47 -20.87442 125.60738 30124 ft 452 kts 307°
2026-05-07 11:48 -20.83260 125.55756 30119 ft 452 kts 307°
2026-05-07 11:48 -20.79056 125.50749 30115 ft 452 kts 307°
2026-05-07 11:49 -20.74854 125.45750 30096 ft 452 kts 307°
2026-05-07 11:49 -20.70653 125.40758 30115 ft 452 kts 307°
2026-05-07 11:50 -20.66443 125.35760 30114 ft 452 kts 307°
2026-05-07 11:50 -20.62258 125.30798 30115 ft 452 kts 307°
2026-05-07 11:51 -20.58057 125.25823 30117 ft 451 kts 307°
2026-05-07 11:51 -20.53851 125.20841 30097 ft 451 kts 306°
2026-05-07 11:52 -20.49643 125.15863 30096 ft 451 kts 307°
2026-05-07 11:52 -20.45438 125.10893 30085 ft 451 kts 307°
2026-05-07 11:53 -20.41221 125.05914 30078 ft 451 kts 306°
2026-05-07 11:53 -20.37036 125.00976 30075 ft 451 kts 306°
2026-05-07 11:54 -20.32824 124.96010 30075 ft 451 kts 306°
2026-05-07 11:54 -20.28607 124.91046 30070 ft 452 kts 306°
2026-05-07 11:55 -20.24407 124.86106 30076 ft 452 kts 306°
2026-05-07 11:55 -20.20194 124.81156 30070 ft 451 kts 306°
2026-05-07 11:56 -20.15979 124.76205 30067 ft 451 kts 306°
2026-05-07 11:56 -20.11785 124.71285 30061 ft 450 kts 306°
2026-05-07 11:57 -20.07569 124.66335 30067 ft 451 kts 306°
2026-05-07 11:57 -20.03350 124.61389 30065 ft 450 kts 306°
2026-05-07 11:58 -19.99844 124.57286 30064 ft 451 kts 306°
2026-05-07 11:58 -19.95615 124.52340 30065 ft 451 kts 305°
2026-05-07 11:59 -19.91428 124.47448 30065 ft 450 kts 305°
2026-05-07 11:59 -19.87209 124.42520 30064 ft 450 kts 305°
2026-05-07 12:00 -19.82990 124.37598 30064 ft 450 kts 305°
2026-05-07 12:00 -19.78767 124.32677 30063 ft 450 kts 305°
2026-05-07 12:01 -19.74544 124.27765 30067 ft 450 kts 305°
2026-05-07 12:01 -19.70346 124.22878 30067 ft 450 kts 305°
2026-05-07 12:02 -19.66111 124.17949 30066 ft 451 kts 305°
2026-05-07 12:02 -19.61884 124.13032 30065 ft 451 kts 305°
2026-05-07 12:03 -19.57675 124.08150 30062 ft 451 kts 305°
2026-05-07 12:03 -19.53430 124.03231 30058 ft 451 kts 305°
2026-05-07 12:04 -19.49188 123.98317 30060 ft 451 kts 305°
2026-05-07 12:04 -19.44947 123.93403 30047 ft 452 kts 305°
2026-05-07 12:05 -19.40702 123.88487 30056 ft 452 kts 305°
2026-05-07 12:05 -19.36480 123.83609 30055 ft 452 kts 305°
2026-05-07 12:06 -19.32222 123.78693 30052 ft 452 kts 305°
2026-05-07 12:06 -19.27980 123.73795 30056 ft 453 kts 305°
2026-05-07 12:07 -19.23714 123.68874 30059 ft 455 kts 305°
2026-05-07 12:07 -19.19426 123.63937 30053 ft 455 kts 305°
2026-05-07 12:08 -19.15128 123.58993 30055 ft 455 kts 305°
2026-05-07 12:08 -19.10839 123.54056 30058 ft 456 kts 305°
2026-05-07 12:09 -19.06560 123.49137 30059 ft 457 kts 305°
2026-05-07 12:09 -19.02252 123.44190 30056 ft 457 kts 305°
2026-05-07 12:10 -18.97945 123.39244 30059 ft 457 kts 305°
2026-05-07 12:10 -18.93662 123.34334 30053 ft 457 kts 305°
2026-05-07 12:11 -18.89331 123.29409 30056 ft 458 kts 306°
2026-05-07 12:11 -18.84968 123.24502 30058 ft 458 kts 306°
2026-05-07 12:12 -18.80601 123.19591 30053 ft 458 kts 306°
2026-05-07 12:12 -18.76241 123.14686 30056 ft 462 kts 305°
2026-05-07 12:13 -18.71827 123.09719 30059 ft 464 kts 305°
2026-05-07 12:13 -18.67395 123.04739 30056 ft 466 kts 305°
2026-05-07 12:14 -18.62939 122.99735 30056 ft 468 kts 305°
2026-05-07 12:14 -18.58511 122.94770 30054 ft 468 kts 305°
2026-05-07 12:15 -18.54039 122.89757 30058 ft 467 kts 305°
2026-05-07 12:15 -18.49588 122.84773 30050 ft 467 kts 305°
2026-05-07 12:16 -18.45131 122.79784 30036 ft 467 kts 305°
2026-05-07 12:16 -18.40670 122.74795 30053 ft 467 kts 305°
2026-05-07 12:17 -18.36234 122.69838 30047 ft 468 kts 305°
2026-05-07 12:17 -18.31761 122.64841 30046 ft 468 kts 305°
2026-05-07 12:18 -18.27285 122.59849 30047 ft 469 kts 305°
2026-05-07 12:18 -18.22797 122.54846 30048 ft 471 kts 305°
2026-05-07 12:19 -18.18318 122.49860 30050 ft 471 kts 305°
2026-05-07 12:19 -18.13815 122.44847 30048 ft 472 kts 305°
2026-05-07 12:20 -18.09296 122.39818 30048 ft 472 kts 305°
2026-05-07 12:20 -18.04774 122.34796 30048 ft 472 kts 306°
2026-05-07 12:21 -18.00291 122.29814 30046 ft 472 kts 305°
2026-05-07 12:21 -17.95866 122.24710 30042 ft 467 kts 300°
2026-05-07 12:22 -17.92294 122.19136 30050 ft 458 kts 291°
2026-05-07 12:22 -17.89308 122.13236 30048 ft 458 kts 291°
2026-05-07 12:23 -17.86318 122.07323 30050 ft 458 kts 291°
2026-05-07 12:23 -17.83331 122.01454 30044 ft 458 kts 291°
2026-05-07 12:24 -17.80315 121.95554 30046 ft 458 kts 291°
2026-05-07 12:24 -17.77289 121.89650 30047 ft 459 kts 291°
2026-05-07 12:25 -17.74262 121.83750 30044 ft 459 kts 291°
2026-05-07 12:25 -17.71237 121.77856 30044 ft 458 kts 291°
2026-05-07 12:26 -17.68230 121.72000 30048 ft 458 kts 291°
2026-05-07 12:26 -17.65206 121.66116 30048 ft 458 kts 291°
2026-05-07 12:27 -17.62175 121.60221 30047 ft 458 kts 291°
2026-05-07 12:27 -17.59145 121.54343 30045 ft 458 kts 291°
2026-05-07 12:28 -17.56128 121.48500 30044 ft 458 kts 291°
2026-05-07 12:28 -17.53098 121.42625 30042 ft 458 kts 291°
2026-05-07 12:29 -17.50065 121.36747 30044 ft 458 kts 291°
2026-05-07 12:29 -17.47027 121.30866 30052 ft 460 kts 291°
2026-05-07 12:30 -17.43993 121.25005 30051 ft 461 kts 291°
2026-05-07 12:30 -17.40935 121.19108 30046 ft 461 kts 291°
2026-05-07 12:31 -17.37867 121.13189 30046 ft 460 kts 291°
2026-05-07 12:31 -17.34828 121.07331 30044 ft 460 kts 291°
2026-05-07 12:32 -17.31762 121.01425 30115 ft 465 kts 291°
2026-05-07 12:32 -17.30220 120.98452 30409 ft 465 kts 291°
2026-05-07 12:32 -17.28675 120.95483 30879 ft 462 kts 291°
2026-05-07 12:32 -17.27145 120.92548 31392 ft 458 kts 291°
2026-05-07 12:33 -17.24105 120.86715 32059 ft 458 kts 291°
2026-05-07 12:33 -17.21078 120.80897 32044 ft 456 kts 291°
2026-05-07 12:34 -17.18049 120.75089 32046 ft 455 kts 291°
2026-05-07 12:34 -17.15008 120.69259 32045 ft 455 kts 291°
2026-05-07 12:35 -17.11990 120.63479 32047 ft 456 kts 291°
2026-05-07 12:35 -17.08945 120.57654 32044 ft 456 kts 291°
2026-05-07 12:36 -17.05903 120.51837 32047 ft 456 kts 291°
2026-05-07 12:36 -17.02854 120.46018 32048 ft 456 kts 291°
2026-05-07 12:37 -16.99800 120.40190 32046 ft 457 kts 291°
2026-05-07 12:37 -16.96754 120.34384 32046 ft 457 kts 291°
2026-05-07 12:38 -16.93695 120.28557 32046 ft 457 kts 291°
2026-05-07 12:38 -16.90651 120.22764 32047 ft 457 kts 291°
2026-05-07 12:39 -16.87588 120.16938 32045 ft 457 kts 291°
2026-05-07 12:39 -16.84522 120.11113 32045 ft 457 kts 292°
2026-05-07 12:40 -16.81450 120.05284 32047 ft 458 kts 292°
2026-05-07 12:40 -16.78393 119.99488 32045 ft 458 kts 292°
2026-05-07 12:41 -16.75315 119.93654 32047 ft 458 kts 292°
2026-05-07 12:41 -16.72250 119.87851 32049 ft 459 kts 292°
2026-05-07 12:42 -16.69161 119.82008 32058 ft 459 kts 292°
2026-05-07 12:42 -16.66071 119.76168 32056 ft 459 kts 292°
2026-05-07 12:43 -16.62996 119.70361 32055 ft 460 kts 292°
2026-05-07 12:43 -16.59900 119.64518 32057 ft 460 kts 292°
2026-05-07 12:44 -16.56795 119.58668 32052 ft 460 kts 292°
2026-05-07 12:44 -16.53695 119.52830 32057 ft 460 kts 292°
2026-05-07 12:45 -16.50614 119.47029 32055 ft 460 kts 292°
2026-05-07 12:45 -16.47508 119.41190 32057 ft 460 kts 292°
2026-05-07 12:46 -16.44400 119.35348 32056 ft 460 kts 292°
2026-05-07 12:46 -16.41300 119.29529 32055 ft 460 kts 292°
2026-05-07 12:47 -16.38714 119.24678 32057 ft 460 kts 292°
2026-05-07 12:47 -16.35602 119.18848 32047 ft 460 kts 292°
2026-05-07 12:48 -16.32483 119.13004 32046 ft 461 kts 292°
2026-05-07 12:48 -16.29390 119.07215 32045 ft 461 kts 292°
2026-05-07 12:49 -16.26271 119.01385 32046 ft 461 kts 292°
2026-05-07 12:49 -16.23141 118.95536 32045 ft 461 kts 292°
2026-05-07 12:50 -16.20013 118.89698 32046 ft 462 kts 292°
2026-05-07 12:50 -16.16905 118.83900 32045 ft 462 kts 292°
2026-05-07 12:51 -16.13773 118.78062 32044 ft 462 kts 292°
2026-05-07 12:51 -16.10628 118.72209 32046 ft 463 kts 292°
2026-05-07 12:52 -16.07485 118.66361 32047 ft 463 kts 293°
2026-05-07 12:52 -16.04352 118.60535 32045 ft 464 kts 293°
2026-05-07 12:53 -16.01188 118.54658 32041 ft 464 kts 293°
2026-05-07 12:53 -15.98047 118.48832 32032 ft 464 kts 293°
2026-05-07 12:54 -15.94890 118.42975 32039 ft 465 kts 293°
2026-05-07 12:54 -15.91723 118.37106 32038 ft 466 kts 293°
2026-05-07 12:55 -15.88545 118.31220 32037 ft 466 kts 293°
2026-05-07 12:55 -15.85383 118.25372 32029 ft 467 kts 293°
2026-05-07 12:56 -15.82199 118.19488 32027 ft 466 kts 293°
2026-05-07 12:56 -15.79014 118.13607 32028 ft 466 kts 293°
2026-05-07 12:57 -15.75849 118.07766 32028 ft 466 kts 293°
2026-05-07 12:57 -15.72670 118.01904 32027 ft 466 kts 293°
2026-05-07 12:58 -15.69495 117.96054 32027 ft 466 kts 293°
2026-05-07 12:58 -15.66305 117.90180 32028 ft 466 kts 293°
2026-05-07 12:59 -15.63124 117.84329 32027 ft 466 kts 294°
2026-05-07 12:59 -15.59955 117.78503 32029 ft 466 kts 294°
2026-05-07 13:00 -15.56766 117.72647 32028 ft 467 kts 294°
2026-05-07 13:00 -15.53566 117.66777 32026 ft 467 kts 294°
2026-05-07 13:01 -15.50359 117.60895 32023 ft 468 kts 294°
2026-05-07 13:01 -15.47154 117.55026 32017 ft 468 kts 294°
2026-05-07 13:02 -15.43945 117.49150 32018 ft 468 kts 294°
2026-05-07 13:02 -15.40755 117.43311 32019 ft 468 kts 294°
2026-05-07 13:03 -15.37538 117.37429 32019 ft 469 kts 294°
2026-05-07 13:03 -15.34314 117.31541 32018 ft 470 kts 294°
2026-05-07 13:04 -15.31085 117.25648 32019 ft 470 kts 294°
2026-05-07 13:04 -15.27867 117.19781 32018 ft 470 kts 294°
2026-05-07 13:05 -15.24622 117.13868 32019 ft 470 kts 294°
2026-05-07 13:05 -15.21381 117.07964 32019 ft 470 kts 294°
2026-05-07 13:06 -15.18159 117.02101 32017 ft 470 kts 294°
2026-05-07 13:06 -15.14923 116.96216 32020 ft 470 kts 294°
2026-05-07 13:07 -15.11701 116.90358 32018 ft 471 kts 294°
2026-05-07 13:07 -15.08456 116.84463 32019 ft 471 kts 294°
2026-05-07 13:08 -15.05215 116.78575 32013 ft 471 kts 294°
2026-05-07 13:08 -15.01962 116.72672 32008 ft 472 kts 295°
2026-05-07 13:09 -14.98706 116.66769 32010 ft 472 kts 295°
2026-05-07 13:09 -14.95467 116.60900 32009 ft 472 kts 295°
2026-05-07 13:10 -14.92200 116.54988 32009 ft 472 kts 295°
2026-05-07 13:10 -14.88933 116.49080 32010 ft 472 kts 295°
2026-05-07 13:11 -14.85692 116.43224 32008 ft 472 kts 295°
2026-05-07 13:11 -14.82425 116.37320 32013 ft 473 kts 295°
2026-05-07 13:12 -14.79156 116.31420 32020 ft 473 kts 295°
2026-05-07 13:12 -14.75881 116.25515 32018 ft 474 kts 295°
2026-05-07 13:13 -14.72601 116.19603 32004 ft 474 kts 295°
2026-05-07 13:13 -14.69331 116.13717 32000 ft 475 kts 295°
2026-05-07 13:14 -14.66033 116.07783 31999 ft 475 kts 295°
2026-05-07 13:14 -14.62738 116.01856 31995 ft 475 kts 295°
2026-05-07 13:15 -14.59456 115.95960 31988 ft 476 kts 295°
2026-05-07 13:15 -14.56148 115.90023 31997 ft 476 kts 295°
2026-05-07 13:16 -14.52856 115.84119 31989 ft 477 kts 295°
2026-05-07 13:16 -14.49543 115.78180 31990 ft 477 kts 295°
2026-05-07 13:17 -14.46225 115.72235 31987 ft 477 kts 295°
2026-05-07 13:17 -14.42908 115.66298 31990 ft 477 kts 295°
2026-05-07 13:18 -14.39606 115.60396 31996 ft 477 kts 295°
2026-05-07 13:18 -14.36292 115.54469 31996 ft 477 kts 295°
2026-05-07 13:19 -14.32966 115.48530 31997 ft 477 kts 295°
2026-05-07 13:19 -14.29643 115.42599 31983 ft 477 kts 295°
2026-05-07 13:20 -14.26341 115.36711 31980 ft 477 kts 295°
2026-05-07 13:20 -14.23010 115.30774 31980 ft 477 kts 295°
2026-05-07 13:21 -14.19685 115.24853 31982 ft 477 kts 295°
2026-05-07 13:21 -14.16377 115.18963 31982 ft 477 kts 295°
2026-05-07 13:22 -14.13047 115.13042 31979 ft 476 kts 295°
2026-05-07 13:22 -14.09722 115.07140 31974 ft 477 kts 296°
2026-05-07 13:23 -14.06380 115.01213 31977 ft 477 kts 296°
2026-05-07 13:23 -14.03064 114.95338 31966 ft 478 kts 296°
2026-05-07 13:24 -13.99720 114.89412 31962 ft 478 kts 296°
2026-05-07 13:24 -13.96370 114.83479 31963 ft 480 kts 296°
2026-05-07 13:25 -13.93009 114.77531 31964 ft 482 kts 296°
2026-05-07 13:25 -13.89629 114.71555 31964 ft 483 kts 296°
2026-05-07 13:26 -13.86261 114.65604 31963 ft 484 kts 296°
2026-05-07 13:26 -13.82867 114.59615 31963 ft 484 kts 296°
2026-05-07 13:27 -13.79475 114.53631 31961 ft 484 kts 296°
2026-05-07 13:27 -13.76087 114.47657 31959 ft 483 kts 296°
2026-05-07 13:28 -13.72693 114.41678 31951 ft 483 kts 296°
2026-05-07 13:28 -13.69303 114.35710 31953 ft 482 kts 296°
2026-05-07 13:29 -13.65941 114.29797 31954 ft 481 kts 296°
2026-05-07 13:29 -13.62558 114.23852 31954 ft 482 kts 296°
2026-05-07 13:30 -13.59173 114.17902 31955 ft 482 kts 296°
2026-05-07 13:30 -13.55782 114.11948 31954 ft 482 kts 296°
2026-05-07 13:31 -13.52392 114.06001 31954 ft 482 kts 296°
2026-05-07 13:31 -13.49000 114.00055 31922 ft 483 kts 296°
2026-05-07 13:32 -13.45617 113.94128 31927 ft 483 kts 296°
2026-05-07 13:32 -13.42211 113.88166 31927 ft 483 kts 296°
2026-05-07 13:33 -13.38808 113.82212 31926 ft 483 kts 296°
2026-05-07 13:33 -13.35399 113.76252 31927 ft 483 kts 296°
2026-05-07 13:34 -13.30297 113.67341 31924 ft 484 kts 296°
2026-05-07 13:35 -13.27454 113.62381 31927 ft 484 kts 297°
2026-05-07 13:35 -13.24033 113.56413 31922 ft 485 kts 297°
2026-05-07 13:36 -13.20607 113.50440 31915 ft 485 kts 297°
2026-05-07 13:36 -13.17178 113.44469 31916 ft 485 kts 297°
2026-05-07 13:37 -13.13747 113.38496 31921 ft 485 kts 297°
2026-05-07 13:37 -13.10342 113.32576 31915 ft 485 kts 297°
2026-05-07 13:38 -13.06910 113.26609 31915 ft 485 kts 297°
2026-05-07 13:38 -13.03475 113.20641 31917 ft 486 kts 297°
2026-05-07 13:39 -13.00034 113.14669 31914 ft 486 kts 297°
2026-05-07 13:39 -12.96594 113.08700 31917 ft 486 kts 297°
2026-05-07 13:40 -12.93173 113.02770 31915 ft 486 kts 297°
2026-05-07 13:40 -12.89722 112.96789 31920 ft 486 kts 297°
2026-05-07 13:41 -12.86275 112.90823 31921 ft 487 kts 297°
2026-05-07 13:41 -12.82812 112.84831 31920 ft 487 kts 297°
2026-05-07 13:42 -12.79378 112.78894 31919 ft 487 kts 297°
2026-05-07 13:42 -12.75923 112.72925 31923 ft 487 kts 297°
2026-05-07 13:43 -12.72456 112.66938 31928 ft 487 kts 297°
2026-05-07 13:43 -12.68992 112.60962 31927 ft 487 kts 297°
2026-05-07 13:44 -12.65529 112.54989 31927 ft 488 kts 297°
2026-05-07 13:44 -12.62085 112.49054 31928 ft 488 kts 297°
2026-05-07 13:45 -12.58617 112.43081 31923 ft 489 kts 298°
2026-05-07 13:45 -12.55135 112.37089 31926 ft 489 kts 298°
2026-05-07 13:46 -12.51643 112.31084 31926 ft 490 kts 298°
2026-05-07 13:46 -12.48156 112.25089 31926 ft 490 kts 298°
2026-05-07 13:47 -12.44685 112.19126 31923 ft 490 kts 298°
2026-05-07 13:47 -12.41188 112.13125 31925 ft 490 kts 298°
2026-05-07 13:48 -12.37692 112.07127 31926 ft 491 kts 298°
2026-05-07 13:48 -12.34191 112.01126 31915 ft 491 kts 298°
2026-05-07 13:49 -12.30677 111.95103 32077 ft 496 kts 298°
2026-05-07 13:49 -12.28928 111.92107 32409 ft 497 kts 298°
2026-05-07 13:49 -12.27159 111.89081 32816 ft 495 kts 298°
2026-05-07 13:49 -12.25392 111.86058 33209 ft 494 kts 298°
2026-05-07 13:50 -12.23627 111.83038 33569 ft 493 kts 298°
2026-05-07 13:50 -12.21882 111.80054 33859 ft 494 kts 298°
2026-05-07 13:50 -12.20096 111.76999 33895 ft 496 kts 298°
2026-05-07 13:51 -12.16573 111.70980 33916 ft 494 kts 298°
2026-05-07 13:51 -12.13055 111.64971 33916 ft 491 kts 298°
2026-05-07 13:52 -12.09548 111.58983 33915 ft 490 kts 298°
2026-05-07 13:52 -12.06039 111.52996 33911 ft 490 kts 298°
2026-05-07 13:53 -12.02522 111.47028 33908 ft 491 kts 300°
2026-05-07 13:53 -11.98236 111.41550 33911 ft 496 kts 311°
2026-05-07 13:54 -11.93079 111.36903 33915 ft 499 kts 319°
2026-05-07 13:54 -11.87601 111.32512 33909 ft 501 kts 319°
2026-05-07 13:55 -11.82120 111.28122 33909 ft 501 kts 319°
2026-05-07 13:55 -11.76646 111.23690 33909 ft 501 kts 319°
2026-05-07 13:56 -11.71187 111.19248 33903 ft 501 kts 319°
2026-05-07 13:56 -11.65743 111.14815 33898 ft 501 kts 319°
2026-05-07 13:57 -11.60287 111.10379 33899 ft 500 kts 319°
2026-05-07 13:57 -11.54870 111.05979 33897 ft 499 kts 319°
2026-05-07 13:58 -11.49435 111.01566 33898 ft 499 kts 319°
2026-05-07 13:58 -11.44009 110.97163 33899 ft 498 kts 319°
2026-05-07 13:59 -11.38587 110.92767 33900 ft 497 kts 319°
2026-05-07 13:59 -11.33163 110.88368 33900 ft 497 kts 319°
2026-05-07 14:00 -11.27780 110.84005 33898 ft 497 kts 319°
2026-05-07 14:00 -11.22356 110.79612 33899 ft 498 kts 319°
2026-05-07 14:01 -11.16917 110.75208 33901 ft 498 kts 319°
2026-05-07 14:01 -11.11490 110.70818 33896 ft 498 kts 319°
2026-05-07 14:02 -11.06057 110.66424 33900 ft 498 kts 319°
2026-05-07 14:02 -11.00658 110.62059 33895 ft 498 kts 319°
2026-05-07 14:03 -10.95208 110.57655 33897 ft 498 kts 319°
2026-05-07 14:03 -10.89774 110.53267 33900 ft 498 kts 319°
2026-05-07 14:04 -10.84372 110.48909 33898 ft 499 kts 319°
2026-05-07 14:04 -10.78921 110.44511 33897 ft 499 kts 319°
2026-05-07 14:05 -10.73476 110.40119 33899 ft 499 kts 319°
2026-05-07 14:05 -10.68057 110.35750 33891 ft 499 kts 319°
2026-05-07 14:06 -10.62601 110.31356 33884 ft 499 kts 319°
2026-05-07 14:06 -10.57163 110.26976 33889 ft 499 kts 319°
2026-05-07 14:07 -10.51707 110.22585 33893 ft 499 kts 319°
2026-05-07 14:07 -10.46286 110.18224 33885 ft 499 kts 319°
2026-05-07 14:08 -10.40841 110.13843 33897 ft 499 kts 319°
2026-05-07 14:08 -10.35383 110.09456 33908 ft 499 kts 319°
2026-05-07 14:09 -10.29932 110.05078 33910 ft 499 kts 320°
2026-05-07 14:09 -10.24468 110.00689 33908 ft 500 kts 319°
2026-05-07 14:10 -10.19043 109.96334 33908 ft 500 kts 320°
2026-05-07 14:10 -10.13576 109.91949 33907 ft 500 kts 320°
2026-05-07 14:11 -10.08108 109.87565 33907 ft 500 kts 320°
2026-05-07 14:11 -10.02671 109.83207 33903 ft 500 kts 320°
2026-05-07 14:12 -9.97201 109.78823 33917 ft 500 kts 320°
2026-05-07 14:12 -9.91734 109.74445 33928 ft 500 kts 320°
2026-05-07 14:13 -9.86305 109.70097 33927 ft 500 kts 320°
2026-05-07 14:13 -9.80842 109.65725 33926 ft 500 kts 320°
2026-05-07 14:14 -9.75370 109.61349 33926 ft 500 kts 320°
2026-05-07 14:14 -9.69934 109.57004 33927 ft 500 kts 320°
2026-05-07 14:15 -9.64465 109.52632 33926 ft 500 kts 320°
2026-05-07 14:15 -9.58993 109.48261 33926 ft 500 kts 320°
2026-05-07 14:16 -9.53533 109.43900 33926 ft 500 kts 320°
2026-05-07 14:16 -9.48064 109.39533 33927 ft 500 kts 320°
2026-05-07 14:17 -9.42636 109.35204 33925 ft 500 kts 320°
2026-05-07 14:17 -9.37167 109.30843 33926 ft 499 kts 320°
2026-05-07 14:18 -9.31699 109.26484 33925 ft 499 kts 320°
2026-05-07 14:18 -9.26238 109.22131 33928 ft 499 kts 320°
2026-05-07 14:19 -9.20774 109.17781 33926 ft 499 kts 320°
2026-05-07 14:19 -9.13624 109.12088 33927 ft 499 kts 320°
2026-05-07 14:20 -9.02761 109.03445 33916 ft 499 kts 320°
2026-05-07 14:20 -8.91825 108.94751 33917 ft 500 kts 320°
2026-05-07 14:21 -8.80879 108.86056 33914 ft 499 kts 320°
2026-05-07 14:21 -8.71784 108.78835 33917 ft 499 kts 320°
2026-05-07 14:22 -8.59053 108.68737 33916 ft 499 kts 320°
2026-05-07 14:22 -8.48123 108.60073 33918 ft 499 kts 321°
2026-05-07 14:23 -8.38971 108.52826 33917 ft 499 kts 321°
2026-05-07 14:23 -8.28056 108.44186 33915 ft 498 kts 321°
2026-05-07 14:24 -8.17184 108.35585 33917 ft 498 kts 321°
2026-05-07 14:24 -8.06274 108.26960 33916 ft 498 kts 321°
2026-05-07 14:25 -7.95270 108.18426 33915 ft 498 kts 321°
2026-05-07 14:25 -7.84230 108.09893 33917 ft 499 kts 321°
2026-05-07 14:26 -7.73279 108.01420 33909 ft 499 kts 321°
2026-05-07 14:26 -7.62252 107.92893 33906 ft 499 kts 322°
2026-05-07 14:27 -7.51223 107.84372 33904 ft 499 kts 322°
2026-05-07 14:27 -7.40195 107.75857 33898 ft 499 kts 322°
2026-05-07 14:28 -7.29162 107.67343 33890 ft 498 kts 322°
2026-05-07 14:28 -7.18161 107.58857 33895 ft 498 kts 322°
2026-05-07 14:29 -7.07218 107.50423 33895 ft 497 kts 322°
2026-05-07 14:29 -6.96251 107.41952 33885 ft 496 kts 322°
2026-05-07 14:30 -6.85271 107.33470 33895 ft 496 kts 322°
2026-05-07 14:30 -6.74331 107.25027 33895 ft 496 kts 322°
2026-05-07 14:31 -6.63453 107.16636 33894 ft 496 kts 322°
2026-05-07 14:31 -6.52429 107.08136 33894 ft 496 kts 322°
2026-05-07 14:32 -6.41535 106.99742 33895 ft 496 kts 322°
2026-05-07 14:32 -6.30598 106.91228 33872 ft 496 kts 317°
2026-05-07 14:32 -6.26675 106.85732 33881 ft 496 kts 295°
2026-05-07 14:33 -6.24997 106.80110 33905 ft 496 kts 282°
2026-05-07 14:33 -6.21966 106.66408 33880 ft 497 kts 283°
2026-05-07 14:34 -6.17594 106.53350 33887 ft 496 kts 309°
2026-05-07 14:34 -6.12283 106.49045 33909 ft 493 kts 332°
2026-05-07 14:34 -6.06224 106.45734 33912 ft 494 kts 332°
2026-05-07 14:35 -5.94255 106.39013 33891 ft 497 kts 331°
2026-05-07 14:35 -5.82204 106.32130 33897 ft 499 kts 330°
2026-05-07 14:36 -5.70098 106.25229 33892 ft 500 kts 331°
2026-05-07 14:36 -5.58004 106.18340 33895 ft 500 kts 331°
2026-05-07 14:37 -5.45890 106.11442 33895 ft 499 kts 331°
2026-05-07 14:37 -5.27856 106.01179 33885 ft 498 kts 331°
2026-05-07 14:38 -5.15759 105.94297 33883 ft 498 kts 331°
2026-05-07 14:38 -5.03784 105.87480 33887 ft 498 kts 331°
2026-05-07 14:39 -4.91715 105.80600 33888 ft 498 kts 331°
2026-05-07 14:39 -4.79663 105.73732 33888 ft 499 kts 331°
2026-05-07 14:40 -4.67571 105.66844 33886 ft 500 kts 331°
2026-05-07 14:40 -4.55462 105.59950 33887 ft 500 kts 331°
2026-05-07 14:41 -4.43402 105.53087 33885 ft 500 kts 331°
2026-05-07 14:41 -4.31296 105.46199 33887 ft 500 kts 331°
2026-05-07 14:42 -4.19156 105.39295 33889 ft 500 kts 332°
2026-05-07 14:42 -4.07037 105.32405 33886 ft 500 kts 332°
2026-05-07 14:43 -3.94996 105.25560 33884 ft 500 kts 332°
2026-05-07 14:43 -3.82849 105.18701 33885 ft 500 kts 332°
2026-05-07 14:44 -3.70715 105.11877 33887 ft 500 kts 332°
2026-05-07 14:44 -3.58552 105.05031 33890 ft 500 kts 332°
2026-05-07 14:45 -3.46400 104.98194 33894 ft 500 kts 332°
2026-05-07 14:45 -3.34274 104.91373 33895 ft 500 kts 332°
2026-05-07 14:46 -3.22198 104.84581 33888 ft 501 kts 332°
2026-05-07 14:46 -3.10044 104.77748 33891 ft 501 kts 332°
2026-05-07 14:47 -2.97885 104.70912 33891 ft 501 kts 332°
2026-05-07 14:47 -2.85323 104.64912 33869 ft 500 kts 344°
2026-05-07 14:48 -2.71717 104.62194 33897 ft 499 kts 351°
2026-05-07 14:48 -2.58111 104.59684 33896 ft 500 kts 351°
2026-05-07 14:49 -2.44400 104.57091 33885 ft 501 kts 351°
2026-05-07 14:49 -2.30748 104.54513 33888 ft 502 kts 351°
2026-05-07 14:50 -2.17007 104.51921 33887 ft 503 kts 351°
2026-05-07 14:50 -2.03195 104.49315 33892 ft 503 kts 351°
2026-05-07 14:51 -1.89410 104.46715 33887 ft 504 kts 351°
2026-05-07 14:51 -1.75612 104.44113 33885 ft 504 kts 351°
2026-05-07 14:52 -1.61908 104.41529 33887 ft 504 kts 351°
2026-05-07 14:52 -1.48144 104.38934 33888 ft 503 kts 351°